Starlink 36039

operational
NORAD ID: 66612 Int'l Des: 2025-270 Owner: SPXS Country: US Constellation: starlink
LEOCIRCULAR

About Starlink 36039

Description loading...

Live Position

Loading 3D Globe...

Upcoming Passes

Altitude History

Altitude vs Time

uPlot chart will show altitude changes over time

Two-Line Element Set

1 66612U 25270AA 26013.03861609 .00034325 00000-0 82531-3 0 9991
2 66612 43.0022 12.2952 0001592 263.9972 96.0703 15.40698606 9177
Epoch: Jan 13, 2026 • Age: 15 hours

Current Status

Altitude 449.4 km
Velocity 7.64 km/s
Sub-Earth Point -25.08°S, 19.3°W
Launch Date Nov 22, 2025
Age 0.1 years
Type internet

Technical Details

Classification Payload
Mass 575.00 kg
Dry Mass 530.00 kg
Total Mass 575.00 kg
Length 0.30 m
Diameter 4.10 m
Span 29.00 m
Shape Box + pan
Manufacturer SPXS
Bus Type Starlink V2MO
Phase Status In Orbit
Owner/State SPXS/US

Large Constellations

Loading constellations...